Кретинга

Литва     55°53′20″N   21°14′30″E
темп.,
°C
ветер,
м/с
пор.,
м/с
влажн.,
%
обл.,
%
осадки,
мм/ч
давл.,
гПа
погр.,
м
19 апреля, пн
пн1900:00+8всв37613 0.0 1022130
03:00+8всв49700 0.0 1022167
06:00+6всв410700 0.0 1022173
09:00+10всв59570 0.0 1023311
12:00+14всв67430 0.0 10221268
15:00+16всв55385 0.0 10222189
18:00+16в554261 0.0 10212286
21:00+10в33634 0.0 102139
20 апреля, вт
вт2000:00+8всв366942 0.0 1021103
03:00+7всв367180 0.0 1021101
06:00+7всв2271100 0.0 102032
09:00+10всв346792 0.0 1019263
12:00+14всв3451100 0.1 10181453
15:00+13с3450100 0.2 10161235
18:00+13ссз455493 0.1 1014678
21:00+9ссв226789 0.1 101434
21 апреля, ср
ср2100:00+6в368399 0.0 1013113
03:00+6всв128485 0.0 101212
06:00+5св11851 0.0 101110
09:00+9зсз12675 0.0 1010259
12:00+12зюз445452 0.0 1008937
15:00+11зюз5754100 0.0 1008690
18:00+9зюз5864100 0.0 1007428
21:00+6зюз5128219 0.0 1006507
22 апреля, чт
чт2200:00+5юз6128212 0.0 1005615
03:00+4юз813773 0.0 1004838
06:00+4юз9148499 0.3 1003945
09:00+4юз111583100 1.1 10031259
12:00+3юз91396100 1.3 1004868
15:00+6юз91371100 1.6 10051451
18:00+4юз81293100 0.6 1006950
21:00+3зюз589051 2.2 1006685
23 апреля, пт
пт2300:00+4зюз478850 0.8 1006507
03:00+3зсз5109371 0.9 1007513
06:00+3сз6119198 0.1 1009637
09:00+3сз71291100 0.3 1011898
12:00+6сз79657 0.5 10131259
15:00+6зсз78605 0.8 10151380
18:00+5зсз68575 0.2 10161345
21:00+2з36751 0.2 1017105